Stations météo

réclame
Mon MeteoGroup
Loch Glascarnoch, Grande-Bretagne (3031): Température de l'air & dewpoint: 22.10.2020 14:00:00 - 28.10.2020 14:00:00 (GMT)Loch Glascarnoch, Grande-Bretagne (3031): Température de l'air -20cm & Température de l'air -100cm: 22.10.2020 14:00:00 - 28.10.2020 14:00:00 (GMT)Loch Glascarnoch, Grande-Bretagne (3031): Vitesse du vent & gusts: 22.10.2020 14:00:00 - 28.10.2020 14:00:00 (GMT)Loch Glascarnoch, Grande-Bretagne (3031): Direction du vent: 22.10.2020 14:00:00 - 28.10.2020 14:00:00 (GMT)Loch Glascarnoch, Grande-Bretagne (3031): reduced air pressure: 22.10.2020 14:00:00 - 28.10.2020 14:00:00 (GMT)Loch Glascarnoch, Grande-Bretagne (3031): visibility: 22.10.2020 14:00:00 - 28.10.2020 14:00:00 (GMT)Loch Glascarnoch, Grande-Bretagne (3031): Ensoleillement: 22.10.2020 14:00:00 - 28.10.2020 14:00:00 (GMT)Loch Glascarnoch, Grande-Bretagne (3031): Quantités de précipitations: 22.10.2020 14:00:00 - 28.10.2020 14:00:00 (GMT)
Date & Time tt [°C] td [°C] tt -20cm [°C] tt -100cm [°C] ff [km/h] ff [knt] fx [km/h] fx [knt] dd ppp [hPa] vv [km] sd [min] rr [mm]
28.10.2020 14:00:00 7,1 4,1 - - 22 12 - - SW 986,3 16 0 0,0
28.10.2020 13:00:00 8,0 4,4 - - 13 7 - - SW 985,8 45 0 0,0
28.10.2020 12:00:00 7,8 4,6 - - 15 8 - - SW 985,7 15 0 0,0
28.10.2020 11:00:00 7,5 4,8 - - 16 9 - - WSW 985,3 28 0 0,0
28.10.2020 10:00:00 7,2 5,1 - - 16 9 - - SW 984,8 30 0 0,2
28.10.2020 09:00:00 6,7 4,9 7,7 8,0 13 7 - - SW 984,5 13 0 0,4
28.10.2020 08:00:00 6,5 4,6 - - 11 6 - - SW 984,2 40 0 0,2
28.10.2020 07:00:00 5,9 3,5 - - 8 4 - - WSW 983,8 15 0 0,0
28.10.2020 06:00:00 6,2 3,8 - - 15 8 - - SW 983,5 10 0 0,2
28.10.2020 05:00:00 6,6 4,3 - - 13 7 - - SW 983,1 14 0 0,0
28.10.2020 04:00:00 5,8 3,9 - - 11 6 - - SSW 983,5 28 0 0,2
28.10.2020 03:00:00 6,4 3,6 - - 5 3 - - SSW 983,5 11 0 0,0
28.10.2020 02:00:00 5,9 3,4 - - 8 4 - - E 983,7 40 0 0,0
28.10.2020 01:00:00 5,9 3,2 - - 4 2 - - S 983,9 35 0 0,0
28.10.2020 00:00:00 5,2 3,8 - - 4 2 - - W 983,7 22 - 0,0
27.10.2020 23:00:00 5,0 3,9 - - 5 3 - - WNW 983,7 16 0 0,0
27.10.2020 22:00:00 4,3 3,3 - - 2 1 - - W 983,6 26 0 0,0
27.10.2020 21:00:00 4,9 3,8 - - 5 3 - - WNW 983,7 24 0 0,0
27.10.2020 20:00:00 5,1 3,9 - - 4 2 - - W 983,7 23 0 0,2
27.10.2020 19:00:00 5,7 4,5 - - 11 6 - - WNW 983,5 50 0 0,6
27.10.2020 18:00:00 6,0 5,6 - - 4 2 - - E 983,0 15 0 1,4
27.10.2020 17:00:00 5,9 5,3 - - 2 1 - - WSW 983,0 6 0 0,6
27.10.2020 16:00:00 6,0 5,3 - - 4 2 - - E 983,1 12 0 0,8
27.10.2020 15:00:00 6,2 5,0 - - 11 6 - - E 983,6 35 0 0,0
27.10.2020 14:00:00 7,3 5,0 - - 16 9 - - E 983,9 40 6 0,0
27.10.2020 13:00:00 6,7 4,7 - - 16 9 - - E 984,9 35 0 0,0
27.10.2020 12:00:00 6,1 4,7 - - 18 10 - - E 985,8 40 0 0,0
27.10.2020 11:00:00 5,8 5,2 - - 16 9 - - ESE 986,9 50 0 0,0
27.10.2020 10:00:00 4,8 4,5 - - 5 3 - - S 987,8 50 12 0,0
27.10.2020 09:00:00 4,6 4,5 7,7 8,0 8 4 - - ENE 988,5 30 0 0,2
27.10.2020 08:00:00 4,3 4,2 - - 2 1 - - S 989,4 0,4 0 0,0
27.10.2020 07:00:00 4,1 4,0 - - 2 1 - - WSW 989,7 0,3 0 0,0
27.10.2020 06:00:00 4,2 3,9 - - 2 1 - - WSW 989,8 1,3 0 0,0
27.10.2020 05:00:00 4,1 3,8 - - 5 3 - - WSW 990,2 26 0 0,0
27.10.2020 04:00:00 4,9 4,7 - - 4 2 - - WSW 990,5 50 0 0,0
27.10.2020 03:00:00 5,8 5,6 - - 4 2 - - W 990,8 4,6 0 0,4
27.10.2020 02:00:00 6,1 6,0 - - 4 2 - - W 991,3 3,0 0 0,2
27.10.2020 01:00:00 6,3 6,1 - - 8 4 - - WNW 991,4 4,2 0 0,2
27.10.2020 00:00:00 6,1 6,0 - - 2 1 - - WNW 991,7 13 - 0,0
26.10.2020 23:00:00 6,5 6,2 - - 13 7 - - NW 991,7 50 0 0,0
26.10.2020 22:00:00 6,6 6,4 - - 5 3 - - W 991,7 21 0 0,0
26.10.2020 21:00:00 6,8 6,6 - - 13 7 - - WNW 991,4 12 0 0,2
26.10.2020 20:00:00 6,7 6,4 - - 11 6 - - WNW 991,1 22 0 0,8
26.10.2020 19:00:00 6,9 6,5 - - 21 11 - - WNW 990,5 8 0 0,0
26.10.2020 18:00:00 6,8 6,3 - - 15 8 - - WNW 990,0 30 0 0,0
26.10.2020 17:00:00 7,3 6,8 - - 16 9 - - WNW 989,1 19 0 0,2
26.10.2020 16:00:00 7,4 7,0 - - 21 11 - - WNW 988,4 9 0 0,4
26.10.2020 15:00:00 7,7 7,3 - - 18 10 - - W 987,8 7 0 0,6
26.10.2020 14:00:00 8,0 7,1 - - 13 7 - - W 987,2 40 0 0,8
26.10.2020 13:00:00 8,3 7,5 - - 21 11 - - W 986,3 12 18 0,0
26.10.2020 12:00:00 8,3 6,8 - - 21 11 - - WNW 985,6 40 0 0,0
26.10.2020 11:00:00 8,1 7,9 - - 15 8 - - WNW 984,7 18 6 0,2
26.10.2020 10:00:00 6,6 6,3 - - 4 2 - - NNE 983,9 3,3 0 0,4
26.10.2020 09:00:00 6,1 5,8 7,7 8,2 4 2 - - E 983,0 11 0 1,0
26.10.2020 08:00:00 5,8 5,4 - - 2 1 - - NNE 982,2 22 0 1,4
26.10.2020 07:00:00 5,9 5,4 - - 8 4 - - NE 981,3 50 0 0,8
26.10.2020 06:00:00 5,7 5,3 - - 2 1 - - S 980,4 12 0 0,0
26.10.2020 05:00:00 5,9 5,4 - - 9 5 - - ENE 980,0 40 0 0,0
26.10.2020 04:00:00 6,1 5,4 - - 15 8 - - ESE 979,8 50 0 0,0
26.10.2020 03:00:00 6,1 5,2 - - 9 5 - - ESE 979,5 45 0 0,4
26.10.2020 02:00:00 5,9 4,9 - - 16 9 - - SE 979,5 50 0 0,0
26.10.2020 01:00:00 6,1 5,1 - - 5 3 - - ESE 979,5 50 0 0,2
26.10.2020 00:00:00 6,9 5,8 - - 5 3 - - SSE 979,3 30 - 0,6
25.10.2020 23:00:00 7,1 5,6 - - 18 10 - - ESE 979,0 40 0 0,4
25.10.2020 22:00:00 6,6 5,4 - - 16 9 - - ESE 978,7 18 0 0,0
25.10.2020 21:00:00 6,1 5,5 - - 16 9 - - ESE 978,7 26 0 0,8
25.10.2020 20:00:00 6,1 5,2 - - 21 11 - - ESE 978,7 11 0 0,2
25.10.2020 19:00:00 6,2 4,5 - - 21 11 - - SE 978,2 45 0 0,0
25.10.2020 18:00:00 5,8 5,1 - - 13 7 - - SE 978,1 50 0 0,2
25.10.2020 17:00:00 5,4 4,7 - - 16 9 - - ESE 978,3 45 0 1,4
25.10.2020 16:00:00 5,6 3,8 - - 16 9 - - SE 978,5 7 0 3,4
25.10.2020 15:00:00 5,9 4,0 - - 11 6 - - SSE 978,6 3,0 0 4,0
25.10.2020 14:00:00 6,9 5,0 - - 22 12 - - SSE 977,8 21 0 0,8
25.10.2020 13:00:00 8,0 5,2 - - 22 12 - - SE 977,6 40 0 0,0
25.10.2020 12:00:00 7,1 3,9 - - 22 12 - - ESE 978,1 45 0 0,0
25.10.2020 11:00:00 7,1 3,5 - - 21 11 - - SE 978,5 50 6 0,0
25.10.2020 10:00:00 7,4 4,2 - - 21 11 - - ESE 978,5 40 30 0,0
25.10.2020 09:00:00 6,3 3,4 7,7 8,5 24 13 - - SE 978,5 50 0 0,0
25.10.2020 08:00:00 5,3 3,7 - - 21 11 - - ESE 978,6 35 0 0,0
25.10.2020 07:00:00 5,2 3,2 - - 22 12 - - SE 978,3 50 0 0,0
25.10.2020 06:00:00 4,8 3,4 - - 15 8 - - ESE 978,6 14 0 0,2
25.10.2020 05:00:00 4,8 3,6 - - 18 10 - - ESE 978,5 27 0 0,0
25.10.2020 04:00:00 4,7 3,0 - - 21 11 - - ESE 978,8 16 0 0,0
25.10.2020 03:00:00 4,5 2,6 - - 18 10 - - ESE 978,9 40 0 0,0
25.10.2020 02:00:00 5,1 2,6 - - 21 11 - - SE 979,5 24 0 0,0
25.10.2020 01:00:00 3,3 2,2 - - 8 4 - - NNE 980,3 30 0 0,0
25.10.2020 00:00:00 - - - - - - - - - - - - -
24.10.2020 23:00:00 1,9 -0,2 - - 5 3 - - SSW 981,2 45 0 0,0
24.10.2020 22:00:00 1,7 -0,1 - - 4 2 - - W 981,4 50 0 0,0
24.10.2020 21:00:00 4,4 2,6 - - 15 8 - - N 981,5 40 0 0,0
24.10.2020 20:00:00 3,4 0,7 - - 8 4 - - E 981,9 50 0 0,0
24.10.2020 19:00:00 4,7 2,0 - - 13 7 - - SSW 982,5 50 0 0,2
24.10.2020 18:00:00 4,4 2,6 - - 15 8 - - SE 983,3 15 0 0,2
24.10.2020 17:00:00 4,6 1,9 - - 18 10 - - SSE 983,3 50 0 0,8
24.10.2020 16:00:00 4,9 2,4 - - 22 12 54 29 SW 983,9 45 0 1,4
24.10.2020 15:00:00 5,1 2,5 - - 22 12 61 33 SW 984,3 26 0 1,0
24.10.2020 14:00:00 6,3 3,4 - - 18 10 - - SSW 983,9 26 12 1,0
24.10.2020 13:00:00 6,4 2,3 - - 28 15 52 28 SW 984,2 8 18 0,0
24.10.2020 12:00:00 7,8 3,8 - - 29 16 61 33 SW 983,3 30 24 0,4
24.10.2020 11:00:00 7,5 3,2 - - 39 21 61 33 SW 983,0 7 42 0,0
24.10.2020 10:00:00 8,3 2,7 - - 37 20 70 38 SW 982,4 19 18 0,4
24.10.2020 09:00:00 8,3 3,7 8,4 8,7 29 16 46 25 SW 982,1 23 0 0,0
24.10.2020 08:00:00 6,5 4,2 - - 16 9 46 25 SW 982,3 40 0 1,4
24.10.2020 07:00:00 6,2 3,6 - - 29 16 55 30 W 983,0 7 0 3,8
24.10.2020 06:00:00 6,6 5,6 - - 26 14 54 29 ESE 981,6 21 0 0,2
24.10.2020 05:00:00 6,8 4,5 - - 35 19 57 31 SE 982,8 25 0 0,0
24.10.2020 04:00:00 5,7 4,1 - - 31 17 54 29 SE 984,9 30 0 0,4
24.10.2020 03:00:00 5,6 3,7 - - 34 18 54 29 SE 987,4 15 0 0,2
24.10.2020 02:00:00 5,2 2,8 - - 26 14 - - SE 989,6 40 0 0,0
24.10.2020 01:00:00 5,3 3,1 - - 28 15 48 26 ESE 991,8 30 0 0,0
24.10.2020 00:00:00 4,6 3,6 - - 21 11 - - ESE 994,0 15 - 0,2
23.10.2020 23:00:00 3,9 2,6 - - 21 11 - - ESE 995,7 30 0 0,0
23.10.2020 22:00:00 3,1 1,8 - - 13 7 - - ESE 996,6 40 0 0,0
23.10.2020 21:00:00 4,2 1,7 - - 8 4 - - SSE 997,0 35 0 0,2
23.10.2020 20:00:00 6,1 3,0 - - 13 7 - - SSW 997,4 16 0 0,0
23.10.2020 19:00:00 5,0 2,3 - - 4 2 - - SE 998,3 35 0 0,0
23.10.2020 18:00:00 5,0 3,0 - - 4 2 - - SSW 998,3 35 0 0,0
23.10.2020 17:00:00 5,7 2,9 - - 13 7 - - WSW 997,8 26 0 0,0
23.10.2020 16:00:00 7,1 3,0 - - 13 7 - - WSW 997,4 25 12 0,0
23.10.2020 15:00:00 8,1 2,7 - - 21 11 - - WSW 997,3 29 36 0,0
23.10.2020 14:00:00 9,7 1,9 - - 18 10 - - W 996,9 35 36 0,0
23.10.2020 13:00:00 8,9 4,9 - - 11 6 - - W 996,7 35 30 0,0
23.10.2020 12:00:00 7,3 5,0 - - 21 11 46 25 WNW 997,0 50 18 0,4
23.10.2020 11:00:00 8,1 3,7 - - 13 7 - - W 996,4 45 6 0,0
23.10.2020 10:00:00 6,2 4,7 - - 9 5 - - SW 996,6 50 0 0,0
23.10.2020 09:00:00 5,3 4,1 8,7 8,7 4 2 - - E 996,6 50 0 0,2
23.10.2020 08:00:00 5,3 4,8 - - 4 2 - - WSW 996,7 13 0 0,6
23.10.2020 07:00:00 5,3 4,5 - - 8 4 - - ESE 996,0 19 0 0,0
23.10.2020 06:00:00 5,3 4,3 - - 18 10 - - ESE 996,0 45 0 0,2
23.10.2020 05:00:00 5,0 4,1 - - 13 7 - - E 996,8 26 0 0,2
23.10.2020 04:00:00 5,3 3,9 - - 18 10 - - ESE 997,2 27 0 0,0
23.10.2020 03:00:00 5,4 3,9 - - 18 10 - - ESE 997,8 45 0 0,0
23.10.2020 02:00:00 5,1 3,7 - - 15 8 - - ESE 999,0 35 0 0,0
23.10.2020 01:00:00 5,2 4,1 - - 15 8 - - ESE 999,9 50 0 0,0
23.10.2020 00:00:00 5,1 4,3 - - 9 5 - - E 1000,5 50 - 0,0
22.10.2020 23:00:00 5,3 4,6 - - 9 5 - - ENE 1001,2 50 0 0,0
22.10.2020 22:00:00 5,4 3,7 - - 5 3 - - ENE 1001,2 50 0 0,0
22.10.2020 21:00:00 6,3 3,0 - - 5 3 - - S 1002,1 50 0 0,0
22.10.2020 20:00:00 6,2 5,3 - - 9 5 - - S 1002,4 50 0 0,2
22.10.2020 19:00:00 5,6 5,1 - - 11 6 - - E 1002,6 4,9 0 0,0
22.10.2020 18:00:00 5,8 5,3 - - 8 4 - - E 1002,6 6 0 0,2
22.10.2020 17:00:00 5,8 5,3 - - 11 6 - - E 1002,6 6 0 0,0
22.10.2020 16:00:00 6,0 5,1 - - 11 6 - - ESE 1002,7 3,5 0 0,0
22.10.2020 15:00:00 7,7 3,8 - - 11 6 - - SE 1002,2 16 0 0,0
22.10.2020 14:00:00 7,8 2,0 - - 11 6 - - ESE 1002,1 45 0 0,0

tt = Température de l'air
td = dewpoint
tt -20cm = Température de l'air -20cm
tt -100cm = Température de l'air -100cm
ff = Vitesse du vent
fx = gusts
dd = Direction du vent
ppp = reduced air pressure
vv = visibility
sd = Ensoleillement
rr = Quantités de précipitations

stations d'obs. à proximité